CUTE-1 (CO-55) 1 27844U 03031E 26033.99972913 .00000374 00000+0 18131-3 0 9995 2 27844 98.6771 44.2326 0009015 209.7917 150.2750 14.24235209172570 CUBESAT XI-IV (CO-57) 1 27848U 03031J 26033.49974978 .00000306 00000+0 15349-3 0 9990 2 27848 98.6800 43.5598 0008627 230.8154 129.2259 14.23534439172213 CUBESAT XI-V 1 28895U 05043F 26033.37423218 .00001894 00000+0 30867-3 0 9996 2 28895 98.2769 186.3491 0013154 273.3824 86.5877 14.72152432 81911 CUTE-1.7+APD II (CO-65) 1 32785U 08021C 26034.14522648 .00007458 00000+0 49029-3 0 9993 2 32785 97.8154 13.0264 0010787 118.9320 241.2991 15.07847279964988 CANX-2 1 32790U 08021H 26033.39304034 .00004725 00000+0 34251-3 0 9997 2 32790 97.8508 10.7762 0012154 131.5057 228.7213 15.04389071964538 SEEDS II (CO-66) 1 32791U 08021J 26033.49902882 .00018428 00000+0 68695-3 0 9998 2 32791 97.7480 25.5205 0005605 76.4403 283.7459 15.27482533966692 SWISSCUBE 1 35932U 09051B 26033.30433601 .00001331 00000+0 27447-3 0 9995 2 35932 98.4135 298.8145 0005533 275.7025 84.3544 14.62151766869443 BEESAT-1 1 35933U 09051C 26033.31416673 .00001208 00000+0 25392-3 0 9997 2 35933 98.4062 298.7353 0004178 294.3590 65.7173 14.61441404869486 ITUPSAT1 1 35935U 09051E 26034.14720963 .00001076 00000+0 23346-3 0 9991 2 35935 98.4150 298.9104 0006450 301.0331 59.0234 14.60185783869170 TISAT 1 1 36799U 10035E 26033.29943732 .00021331 00000+0 83414-3 0 9998 2 36799 98.0632 328.5818 0003660 42.6112 317.5408 15.25873886847099 AEROCUBE 4.5A 1 38767U 12048K 26033.50231400 .00079142 00000+0 10657-2 0 9998 2 38767 64.6400 141.9678 0051230 221.5553 138.1692 15.55814243351505 STRAND-1 1 39090U 13009E 26033.96028741 .00000397 00000+0 14811-3 0 9991 2 39090 98.3854 217.5215 0007566 272.4470 87.5850 14.37061675677781 BRITE-AUSTRIA 1 39091U 13009F 26034.05587708 .00000242 00000+0 97104-4 0 9992 2 39091 98.3918 216.8358 0009090 282.1050 77.9118 14.36473952677794 NEE-01 PEGASO 1 39151U 13018B 26033.64717164 .00003954 00000+0 38776-3 0 9996 2 39151 98.0991 173.6016 0011933 245.1571 114.8407 14.92793224690624 POPACS 2 1 39269U 13055E 26033.44857319 .00016048 00000+0 28834-3 0 9994 2 39269 80.9958 297.9177 0435001 265.4414 89.7002 14.86243457643161 POPACS 3 1 39270U 13055F 26033.36444678 .00007608 00000+0 18289-3 0 9992 2 39270 81.0026 15.0502 0564535 119.7505 246.1088 14.53019766618959 ZACUBE-1 (TSHEPISOSAT) 1 39417U 13066B 26034.11121803 .00008054 00000+0 64316-3 0 9991 2 39417 97.8162 355.7742 0041193 339.3739 20.5820 14.99864823660628 WNISAT-1 1 39423U 13066H 26034.17475431 .00000996 00000+0 19116-3 0 9998 2 39423 97.6979 193.0154 0162603 294.2306 64.1977 14.57754930647205 TRITON-1 1 39427U 13066M 26034.21579743 .00004609 00000+0 56214-3 0 9993 2 39427 97.8321 307.1013 0090245 311.6624 47.6887 14.80955983654259 GOMX-1 1 39430U 13066Q 26034.15488476 .00003613 00000+0 54956-3 0 9997 2 39430 97.6575 243.0109 0130239 147.3886 213.5450 14.68940776650232 CUBEBUG-2 (LO-74) 1 39440U 13066AA 26033.50554816 .00003846 00000+0 36710-3 0 9994 2 39440 97.8770 342.1488 0060493 113.0571 247.7042 14.92526059656893 NEE-02 KRYSAOR 1 39441U 13066AB 26033.63368845 .00002402 00000+0 27045-3 0 9992 2 39441 97.8786 333.9652 0067689 149.6255 210.8910 14.85943884656212 FUNCUBE-1 (AO-73) 1 39444U 13066AE 26034.12648134 .00011948 00000+0 78569-3 0 9994 2 39444 97.8132 3.1110 0036454 301.3714 58.3948 15.07186925659453 UWE-3 1 39446U 13066AG 26033.41259173 .00006115 00000+0 54003-3 0 9995 2 39446 97.8543 348.8346 0051814 50.3426 310.2349 14.95700937657420 BRITE-CA1 (TORONTO) 1 40020U 14033L 26033.35954546 .00000982 00000+0 15588-3 0 9990 2 40020 97.9522 164.9710 0078754 349.5216 10.4346 14.72366118622378 DUCHIFAT-1 1 40021U 14033M 26034.04534816 .00043955 00000+0 90557-3 0 9998 2 40021 98.0705 76.4972 0005853 186.4440 173.6733 15.45776570634911 NANOSATC-BR1 1 40024U 14033Q 26033.99965780 .00019608 00000+0 74775-3 0 9994 2 40024 98.0867 54.8750 0002241 309.7771 50.3268 15.26733541633476 QB50P1 1 40025U 14033R 26033.99433971 .00011240 00000+0 59295-3 0 9991 2 40025 98.0990 35.9610 0008214 337.7445 22.3428 15.15714888632684 QB50P2 1 40032U 14033Y 26033.61879755 .00009942 00000+0 56754-3 0 9995 2 40032 98.0690 22.3850 0005597 276.5295 83.5297 15.12948167632307 PERSEUS-M2 1 40037U 14033AD 26034.15918803 .00001668 00000+0 15802-3 0 9994 2 40037 97.9827 342.1480 0012943 30.1251 330.0710 14.94979480630751 PERSEUS-M1 1 40039U 14033AF 26033.40511146 .00001844 00000+0 17367-3 0 9996 2 40039 97.9520 335.4921 0012665 31.4739 328.7236 14.95055882630494 POLYITAN-1 1 40042U 14033AJ 26033.98376319 .00020721 00000+0 75961-3 0 9993 2 40042 98.1056 48.0013 0005890 252.5288 107.5306 15.28013629633068 TIGRISAT 1 40043U 14033AK 26033.87966824 .00003220 00000+0 37987-3 0 9999 2 40043 97.7606 187.1794 0050480 154.1303 206.2452 14.84505360625694 AEROCUBE 6A 1 40045U 14033AM 26033.42774341 .00007011 00000+0 61509-3 0 9992 2 40045 97.7082 202.0757 0040765 106.1933 254.3781 14.96286205626452 AEROCUBE 6B 1 40046U 14033AN 26033.42311349 .00008038 00000+0 68068-3 0 9995 2 40046 97.7073 201.5979 0039607 98.1141 262.4577 14.97648064626579 CANX-4 1 40055U 14034C 26034.11927252 .00001221 00000+0 16496-3 0 9994 2 40055 98.3324 264.3700 0014148 82.4760 277.8058 14.80964556624683 CANX-5 1 40056U 14034D 26034.11923361 .00001230 00000+0 16609-3 0 9998 2 40056 98.3326 264.4054 0014130 82.6324 277.6492 14.80981054615499 UKUBE-1 1 40074U 14037F 26033.52836705 .00010964 00000+0 66075-3 0 9996 2 40074 98.4184 22.9487 0000435 117.1747 242.9524 15.10981868628206 BRITE-PL2 (HEWELIUSZ) 1 40119U 14049B 26034.11552645 .00003157 00000+0 30124-3 0 9995 2 40119 97.8982 145.2538 0014017 189.0261 171.0708 14.93982710621421 AEROCUBE 5C 1 40965U 15058B 26034.16225876 .00003022 00000+0 27575-3 0 9990 2 40965 64.7696 319.2672 0132870 116.0481 245.4380 14.90568068345674 AEROCUBE 7 1 40966U 15058C 26034.12596953 .00004445 00000+0 36734-3 0 9991 2 40966 64.7637 304.3530 0123023 115.3991 245.9918 14.94501689345915 FOX-1A (AO-85) 1 40967U 15058D 26034.09832255 .00003105 00000+0 28815-3 0 9999 2 40967 64.7777 335.4125 0130580 109.6038 251.9224 14.90071586 93584 SINOD-D 1 1 40968U 15058E 26034.18576024 .00004701 00000+0 38973-3 0 9998 2 40968 64.7775 318.1675 0119023 107.2250 254.1932 14.94649316 96625 SNAP-3 ALICE 1 40970U 15058G 26033.93011266 .00052026 00000+0 12872-2 0 9997 2 40970 64.7572 200.1272 0038818 92.4975 268.0606 15.39354929 96093 LMRST-SAT 1 40971U 15058H 26034.15444289 .00002903 00000+0 27155-3 0 9998 2 40971 64.7779 331.3291 0132872 111.4969 250.0370 14.89705433 93585 SNAP-3 EDDIE 1 40972U 15058J 26033.49500142 .00056986 00000+0 13651-2 0 9991 2 40972 64.7492 193.1907 0040731 96.9854 263.5918 15.40215594 98155 PROPCUBE 3 1 40973U 15058K 26034.17636310 .00003887 00000+0 33258-3 0 9993 2 40973 64.7706 310.9071 0125723 113.3986 248.0408 14.93173104 94784 BISONSAT 1 40974U 15058L 26033.99555919 .00013532 00000+0 71803-3 0 9994 2 40974 64.7588 246.4180 0081796 107.3051 253.7041 15.12713123 95290 SNAP-3 JIMI 1 40975U 15058M 26034.11538387 .00006700 00000+0 47993-3 0 9992 2 40975 64.7655 283.4437 0108006 110.9508 250.3208 15.00564556 94099 PROPCUBE 1 (FLORA) 1 40976U 15058N 26034.12192481 .00002527 00000+0 24733-3 0 9995 2 40976 64.7767 350.4785 0131998 113.6901 247.8126 14.88380290 96300 SINOD-D 3 1 40977U 15058P 26034.11509726 .00004129 00000+0 35980-3 0 9995 2 40977 64.7749 334.1225 0120519 112.0217 249.3750 14.92839020 94739 HORYU-4 1 41340U 16012D 26034.10674096 .00070187 00000+0 92169-3 0 9992 2 41340 30.9929 308.8067 0002614 27.6902 332.3888 15.57174020549709 RAVAN 1 41849U 16067B 26034.11566315 .00036978 00000+0 82886-3 0 9996 2 41849 98.0103 269.3212 0007983 108.0073 252.2043 15.43305729506941 CELTEE 1 1 41850U 16067C 26034.08345682 .00007271 00000+0 36033-3 0 9993 2 41850 98.0846 251.4909 0001478 39.7277 320.4063 15.18088538505522 OPTICUBE 04 1 41851U 16067D 26034.09655712 .00003197 00000+0 20650-3 0 9994 2 41851 98.0819 239.3154 0015049 206.9112 153.1336 15.08954116504947 AEROCUBE 8D 1 41852U 16067E 26034.09263147 .00009714 00000+0 42636-3 0 9991 2 41852 98.0865 254.1096 0002378 227.3427 132.7607 15.22184861505657 AEROCUBE 8C 1 41853U 16067F 26034.13799942 .00009947 00000+0 43357-3 0 9993 2 41853 98.0730 251.5663 0005792 152.1051 208.0495 15.22400906505654 CORVUS BC2 1 42846U 17042X 26034.03102416 .00003942 00000+0 27960-3 0 9994 2 42846 97.3881 200.8041 0012755 206.2580 153.8002 15.05250624466870 CORVUS BC1 1 42847U 17042Y 26033.84354699 .00003608 00000+0 25457-3 0 9993 2 42847 97.3921 201.3435 0012020 180.5216 179.6000 15.05511744466871 MAKERSAT 0 1 43016U 17073D 26033.90318259 .00024213 00000+0 75915-3 0 9994 2 43016 97.4841 275.7979 0122478 29.3050 331.4985 15.25936844445944 SIRION PATHFINDER-2 1 43759U 18099B 26034.13585929 .00006036 00000+0 34420-3 0 9992 2 43759 97.4459 86.3743 0010172 51.1057 309.1080 15.13090920392341 CORVUS BC4 1 43767U 18099K 26034.10015435 .00004615 00000+0 27813-3 0 9997 2 43767 97.4268 80.9807 0010175 102.4291 257.8079 15.11216156392146 SPACEBEE-7 1 43816U 18099BL 26034.12445464 .00248891 00000+0 15708-2 0 9998 2 43816 97.4589 117.9482 0004295 294.9924 65.0894 15.75913223393721 SHIELDS 1 1 43850U 18104B 26033.50532418 .00578940 17690-3 57419-3 0 9994 2 43850 84.9938 225.3183 0002510 298.4125 61.6912 16.11315156398900 M2 PATHFINDER 1 45727U 20037E 26034.08438910 .00003596 00000+0 26521-3 0 9996 2 45727 97.8124 223.8359 0010896 244.7882 115.2214 15.03911641305330 NETSAT-4 1 46504U 20068U 26033.49432224 .00018538 00000+0 48343-3 0 9998 2 46504 97.8616 31.4095 0008555 84.4756 275.7463 15.38863513295022 NETSAT-3 1 46505U 20068V 26033.51875902 .00021268 00000+0 57936-3 0 9998 2 46505 97.8648 29.8553 0008316 96.1917 264.0274 15.37486526294958 NETSAT-1 1 46506U 20068W 26034.18526853 .00016243 00000+0 54675-3 0 9995 2 46506 97.8711 26.3576 0007848 109.0961 251.1129 15.30841085294773 NETSAT-2 1 46507U 20068X 26033.47128321 .00021579 00000+0 54640-3 0 9995 2 46507 97.8631 30.9235 0007011 105.9404 254.2613 15.39745569294969 WILDTRACKCUBE-SIMBA 1 47941U 21022K 26032.71702384 .00222913 00000+0 10076-2 0 9991 2 47941 97.4006 311.6495 0008146 122.7801 237.4255 15.83354813270101 GREENCUBE (IO-117) 1 53109U 22080E 26033.24750568 -.00000003 00000+0 00000+0 0 9993 2 53109 70.1638 345.1692 0009146 318.0672 41.9286 6.42583152 83391 SITRO-AIS 5 (KATYS) 1 57176U 23091L 26034.20123358 .00014498 00000+0 56412-3 0 9996 2 57176 97.5254 97.0309 0011610 210.1422 149.9149 15.26058985143889 SITRO-AIS 6 (CHIRKIN) 1 57192U 23091AC 26034.18020627 .00007662 00000+0 32007-3 0 9995 2 57192 97.5258 96.7320 0011746 209.1555 150.9028 15.23857556143869 SITRO-AIS 8 (ANOKHIN) 1 57193U 23091AD 26034.16751294 .00015602 00000+0 56937-3 0 9996 2 57193 97.5249 98.0998 0010921 207.0440 153.0232 15.28174561143954 SITRO-AIS 7 (FARTUSHNIY) 1 57194U 23091AE 26034.22522497 .00006433 00000+0 27097-3 0 9992 2 57194 97.5258 96.6607 0011448 210.2854 149.7722 15.23643783143864 SITRO-AIS 10 (BURDAEV) 1 57199U 23091AK 26034.17923586 .00021158 00000+0 66026-3 0 9991 2 57199 97.5261 101.9461 0007550 182.6273 177.4930 15.33209722144195 SITRO-AIS 9 (SHCHUKIN) 1 57201U 23091AM 26034.16937803 .00020376 00000+0 64308-3 0 9993 2 57201 97.5260 101.7548 0007551 183.5378 176.5812 15.32856637144189 SITRO-AIS 12 (SMIRENNIY) 1 57204U 23091AQ 26034.18322259 .00020298 00000+0 63580-3 0 9995 2 57204 97.5269 102.1600 0007583 176.4452 183.6845 15.33099884144206 SITRO-AIS 11 (SHEFFER) 1 57208U 23091AU 26034.22896091 .00020401 00000+0 63269-3 0 9994 2 57208 97.5267 102.3801 0007495 176.0538 184.0764 15.33416618144221 SITRO-AIS 25 1 59066U 24039R 26034.19147848 .00005876 00000+0 46494-3 0 9996 2 59066 95.3960 143.0666 0149769 76.5020 285.2842 14.92298786104734 SITRO-AIS 26 1 59067U 24039S 26034.24267990 .00005723 00000+0 45490-3 0 9990 2 59067 95.3959 143.0250 0150010 76.7624 285.0284 14.92116926104738 SITRO-AIS 27 1 59068U 24039T 26034.18201512 .00005940 00000+0 46815-3 0 9995 2 59068 95.3961 143.1960 0149177 75.8942 285.8810 14.92502637104748 SITRO-AIS 28 1 59071U 24039U 26034.22959206 .00005708 00000+0 45000-3 0 9991 2 59071 95.3958 143.2690 0148881 75.5858 286.1838 14.92537571104753 GRBBETA 1 60237U 24128C 26034.10480968 .00005279 00000+0 36931-3 0 9993 2 60237 61.9925 326.2821 0054222 106.9814 253.7231 15.05375230 86075 OOV-CUBE (TUBSAT-30) 1 60240U 24128F 26034.14724667 .00003195 00000+0 25032-3 0 9993 2 60240 61.9972 332.7145 0056787 105.0635 255.6749 15.01993369 85979 ROBUSTA-3A (MEDITERRAN*) 1 60243U 24128J 26034.15698765 .00010881 00000+0 66746-3 0 9993 2 60243 61.9887 321.4375 0054620 101.3053 259.4186 15.09352084 86175 LASARSAT 1 62391U 24247Q 26034.08864627 .00030315 00000+0 80377-3 0 9995 2 62391 44.9777 291.0248 0001995 201.7388 158.3414 15.37847010 62617 CROCUBE 1 62394U 24247T 26034.07674088 .00032915 00000+0 84577-3 0 9991 2 62394 44.9741 290.0196 0001864 172.0081 188.0836 15.38773792 62622